User: anonymous   Login
Location: Unspecified
(0.0000°N, 0.0000°E)
Time: 23:19:51
(UTC+00:00)
Language:

UGATUSAT - Orbit

View from above orbital plane
View from above orbital plane
View from above satellite
View from above satellite

Ground track
Ground track

The orbit data is extracted from the following two-line orbital elements,

1 35869U 09049E   17141.90576992 +.00000001 +00000-0 +19249-4 0  9994
2 35869 098.4160 164.0568 0003904 206.8032 153.2946 14.22367631398340
Epoch (UTC): 21 May 2017 21:44:18
Eccentricity: 0.0003904
inclination: 98.4160°
perigee height: 814 km
apogee height: 820 km
right ascension of ascending node: 164.0568°
argument of perigee: 206.8032°
revolutions per day: 14.22367631
mean anomaly at epoch: 153.2946°
orbit number at epoch: 39834

The dashed part of the orbit path shows where the satellite is in the earth's shadow,  

DLR